Location: �chenoz-la-M�line
(47.6009°N, 6.1354°E)
Time: 04:07:13
(UTC+00:00)

STARLINK-2123 - Pass Details

Date: 27 January 2021
Orbit: 379 x 380 km, 53.1° (Epoch: 27 February)

Event Time Altitude Azimuth Distance (km) Brightness Sun altitude
Exits shadow 05:47:35 - 216° (SW) 1,728 5.9 -13.6°
Reaches altitude 10° 05:48:32 10° 211° (SSW) 1,357 5.4 -13.4°
Maximum altitude 05:51:20 35° 143° (SE) 609 4.3 -13.0°
Drops below altitude 10° 05:54:08 10° 75° (ENE) 1,355 6.6 -12.5°
Sets 05:56:15 0° 66° (ENE) 2,202 7.6 -12.2°
